Location: Unspecified
(0.0000°N, 0.0000°E)
Time: 20:16:00
(UTC+02:00)

Iridium 28 - Visible Passes

Search period start: 24 April 2018 00:00
Search period end: 04 May 2018 00:00
Orbit: 771 x 775 km, 86.4° (Epoch: 24 April)

Date Brightness Start Highest point End Pass type
(mag) Time Alt. Az. Time Alt. Az. Time Alt. Az.
24 Apr 8.1 22:09:35 10° N 22:09:35 10° N 22:09:36 10° N visible
25 Apr 7.7 21:33:44 12° NNE 21:33:44 12° NNE 21:34:10 10° NNE visible
26 Apr 7.8 22:38:03 19° NW 22:38:03 19° NW 22:39:43 10° NNW visible
27 Apr 6.2 22:01:54 46° NNW 22:01:54 46° NNW 22:05:30 10° N visible
28 Apr 5.7 21:25:31 45° E 21:25:31 45° E 21:30:26 10° NNE visible
29 Apr 6.7 20:48:45 16° ESE 20:50:42 20° E 20:54:23 10° NE visible
29 Apr 7.6 22:28:57 18° WSW 22:31:01 23° W 22:35:01 10° NW visible
30 Apr 6.2 21:51:11 10° SSW 21:56:13 52° W 22:01:14 10° NNW visible
01 May 5.4 21:16:15 10° S 21:21:24 66° E 21:26:32 10° N visible
02 May 6.3 20:42:11 10° SSE 20:46:35 28° E 20:50:58 10° NNE visible
02 May 8.2 22:23:52 10° SW 22:26:54 16° W 22:29:56 10° NW visible
03 May 6.9 21:47:22 10° SSW 21:52:06 36° W 21:56:49 10° NNW visible
